Showing default

IOD1_STARTICAL, 63212

Orbit data source: Space-Track

IOD1_STARTICAL, 63212 is a Spanish payload satellite in SSO that was launched on Sat, 15 Mar 2025 UTC via an FALCON 9 launch vehicle from the Air Force Western Test Range (AFWTR). Payload-class satellites include a variety of spacecraft equipped with specific instruments for various scientific and technological missions. These include communications satellites like Starlink; space stations such as the ISS; scientific satellites like the Hubble; Earth observation satellites from companies like Planet Labs, Umbra, and HawkEye 360; GPS; miniature CubeSats for education and research; and military/defense satellites.

Loading next visibility...
Identifier
63212, 2025-052C
Orbit
SSO
Last TLE update
10 hours ago
Origin
Manufacturer
GOMSpace
Mission
Operational Commercial Communications
Bus & Motor
CUBESAT 16U, Unknown motor
Mass
20 kg wet, 20 kg dry
Launch date (UTC)
2025-03-15 (4 months ago)
Launch vehicle
FALCON 9
Launch site
Air Force Western Test Range (AFWTR)
Object type
Payload
Rocket body
Debris
Shape & HBR
Box + 2 Pan + 1 Ant, 0.8 m
Radar Cross Section
0.152 m², Medium (>0.1 m² and < 1m²)

Expand to show TLE details & history

TLE from 10 hours ago
0 IOD1_STARTICAL
1 63212U 25052C   25182.43858695  .00025480  00000-0  10266-2 0  9990
2 63212  97.4238  76.3890 0000823 344.1691  15.9521 15.24830151 16597
Epoch: 2025-07-01T10:31Z
TLE epoch observation values (Epoch: 2025-07-01T10:31:33.912Z)
Latitude
-0.00001°
Longitude
-1.23633°
Altitude
493.848 km
Speed
7.618 km/s
True Right ascension
05h 05m 33s
True Declination
0° 00' 00"
Sunlit
Object was in daylight at epoch
Visualization orbit readout
Latitude
31.68877°
Longitude
-176.23097°
Altitude
495.958 km
Speed
7.619 km/s
Apparent Right ascension
18h 43m 31s
Apparent Declination
-2° 44' 25"
Sunlit
Object is in full shadow
Visualization observer readout
Local Sidereal Time
08:17:30
Azimuth
35.849° NE
Elevation
-47.162°
Doppler factor
1
Orbital elements
Apogee altitude
488.821 km
Perigee altitude
487.691 km
Semi-major axis
6,866.393 km
Eccentricity
0.00008
Inclination
97.4238°
RAAN
76.389°
Arg. of periapsis
344.1691°
True anomaly
Unknown
Mean anomaly
15.9521°
Eccentric anomaly
Unknown
Mean motion
3.81461 °/min
Orbital period
94.37 mins
BSTAR
0.0010266
Loading maneuver chart data...
Loading SW <> Apogee altitude chart data...
Loading historical data...
Loading historical data...
Loading historical data...
Loading historical data...
Loading historical data...
Loading historical data...
Loading historical data...

IOD1_STARTICAL Visibility forecast

Observer location: undefined°, undefined°

Span
Click to sort rows by Start time (UTC) header in descending order
Start Az.
Max El. time (UTC)
Max El. Az.
Max El.
End time (UTC)
End Az.
6 mins2025-07-02 05:59:22.847Z3.331° NNE2025-07-02 06:02:22.847Z248.719° W41.018°2025-07-02 06:05:22.847Z202.737° SW
4 mins2025-07-02 16:36:22.847Z124.285° SE2025-07-02 16:37:22.847Z94.435° ESE31.931°2025-07-02 16:40:22.847Z8.72° NNE
|